{"data":{"norad_id":47288,"epoch":"2026-09-20T03:32:34.325664Z","epoch_age_seconds":34598,"freshness":"FRESH","line1":"1 47288U 20100AG  26263.14761951 -.00000323  00000+0 -93407-3 0  9990","line2":"2 47288  87.8984 331.8146 0001465 106.6379 253.4910 13.12442184277122","mean_motion":13.12442184,"eccentricity":0.0001465,"inclination_deg":87.8984,"raan_deg":331.8146,"arg_perigee_deg":106.6379,"mean_anomaly_deg":253.491,"bstar":-0.00093407,"rev_number":27712,"period_min":109.71911887282,"perigee_km":1212.6142298377,"apogee_km":1214.838645825,"semimajor_km":7591.8634378314,"source":"CELESTRAK","updated_at":"2026-09-20T09:00:44.582280Z"}}